| time (UTC) | temp C | wind direction | speed KPH | gust KPH | rain 1hr cm | rain 24hr cm | rain mn cm | humidity % | barometer mb |
| 20260504081523 | 6 | 353 | 1.6 | 3.2 | 0.00 | 0.00 | 0.00 | 81 | 1014.8 |
| 20260504080520 | 6 | 16 | 0.0 | 1.6 | 0.00 | 0.00 | 0.00 | 81 | 1014.8 |
| 20260504050524 | 4 | 349 | 1.6 | 3.2 | 0.00 | 0.00 | 0.00 | 76 | 1015.6 |
| 20260504045522 | 4 | 30 | 1.6 | 3.2 | 0.00 | 0.00 | 0.00 | 76 | 1015.5 |
| 20260504044519 | 4 | 16 | 3.2 | 3.2 | 0.00 | 0.00 | 0.00 | 75 | 1015.6 |
| 20260504043517 | 4 | 20 | 3.2 | 3.2 | 0.00 | 0.00 | 0.00 | 76 | 1015.7 |
| 20260504042530 | 3 | 4 | 3.2 | 3.2 | 0.00 | 0.00 | 0.00 | 79 | 1015.6 |
| 20260504041527 | 3 | 1 | 1.6 | 3.2 | 0.00 | 0.00 | 0.00 | 80 | 1015.7 |
| 20260504040525 | 3 | 32 | 3.2 | 4.8 | 0.00 | 0.00 | 0.00 | 79 | 1015.7 |
| 20260504035522 | 3 | 341 | 1.6 | 4.8 | 0.00 | 0.00 | 0.00 | 76 | 1015.6 |
| 20260504034520 | 3 | 26 | 1.6 | 3.2 | 0.00 | 0.00 | 0.00 | 75 | 1015.6 |
| 20260504033537 | 3 | 323 | 3.2 | 4.8 | 0.00 | 0.00 | 0.00 | 75 | 1015.5 |
| 20260504032530 | 4 | 47 | 1.6 | 3.2 | 0.00 | 0.00 | 0.00 | 74 | 1015.3 |
| 20260504031528 | 3 | 359 | 1.6 | 3.2 | 0.00 | 0.00 | 0.00 | 75 | 1015.2 |
| 20260504030525 | 3 | 17 | 1.6 | 3.2 | 0.00 | 0.00 | 0.00 | 75 | 1015.3 |
| 20260504025523 | 4 | 14 | 3.2 | 4.8 | 0.00 | 0.00 | 0.00 | 72 | 1015.3 |
| 20260504024521 | 4 | 4 | 1.6 | 3.2 | 0.00 | 0.00 | 0.00 | 70 | 1015.4 |
| 20260504023559 | 5 | 359 | 1.6 | 3.2 | 0.00 | 0.00 | 0.00 | 70 | 1015.3 |
| 20260504022538 | 5 | 10 | 1.6 | 3.2 | 0.00 | 0.00 | 0.00 | 68 | 1015.3 |
| 20260504021529 | 5 | 339 | 1.6 | 3.2 | 0.00 | 0.00 | 0.00 | 67 | 1015.2 |
| 20260504020527 | 6 | 359 | 3.2 | 3.2 | 0.00 | 0.00 | 0.00 | 66 | 1015.1 |
| 20260504015605 | 6 | 32 | 0.0 | 3.2 | 0.00 | 0.00 | 0.00 | 64 | 1014.8 |
| 20260504014522 | 6 | 355 | 1.6 | 3.2 | 0.00 | 0.00 | 0.00 | 62 | 1014.7 |
| 20260504013520 | 7 | 9 | 1.6 | 3.2 | 0.00 | 0.00 | 0.00 | 59 | 1014.6 |
| 20260504012538 | 7 | 355 | 1.6 | 3.2 | 0.00 | 0.00 | 0.00 | 55 | 1014.4 |
| 20260504011530 | 8 | 356 | 1.6 | 3.2 | 0.00 | 0.00 | 0.00 | 54 | 1014.4 |
| 20260504010548 | 8 | 10 | 3.2 | 4.8 | 0.00 | 0.00 | 0.00 | 51 | 1014.3 |
| 20260504005546 | 9 | 5 | 3.2 | 3.2 | 0.00 | 0.00 | 0.00 | 47 | 1014.3 |
| 20260504004524 | 10 | 348 | 1.6 | 3.2 | 0.00 | 0.00 | 0.00 | 45 | 1014.2 |
| 20260504003522 | 10 | 357 | 1.6 | 3.2 | 0.00 | 0.00 | 0.00 | 44 | 1014.2 |
| 20260504002519 | 11 | 0 | 1.6 | 3.2 | 0.00 | 0.00 | 0.00 | 40 | 1014.1 |
| 20260504001518 | 12 | 19 | 1.6 | 3.2 | 0.00 | 0.00 | 0.00 | 35 | 1014.1 |
| 20260504000530 | 14 | 355 | 1.6 | 3.2 | 0.00 | 0.00 | 0.00 | 30 | 1014.2 |
| 20260503235648 | 15 | 320 | 3.2 | 6.4 | 0.00 | 0.00 | 0.00 | 26 | 1014.1 |
| 20260503234525 | 15 | 306 | 3.2 | 6.4 | 0.00 | 0.00 | 0.00 | 25 | 1014.1 |
| 20260503233523 | 16 | 299 | 4.8 | 8.0 | 0.00 | 0.00 | 0.00 | 25 | 1014.0 |
| 20260503232520 | 16 | 312 | 4.8 | 6.4 | 0.00 | 0.00 | 0.00 | 24 | 1014.0 |
| 20260503231539 | 17 | 333 | 6.4 | 16.1 | 0.00 | 0.00 | 0.00 | 23 | 1013.8 |
| 20260503230516 | 17 | 319 | 4.8 | 8.0 | 0.00 | 0.00 | 0.00 | 23 | 1013.8 |
| 20260503225529 | 17 | 324 | 6.4 | 14.5 | 0.00 | 0.00 | 0.00 | 22 | 1013.7 |
| 20260503224606 | 17 | 331 | 6.4 | 12.9 | 0.00 | 0.00 | 0.00 | 22 | 1013.8 |
| 20260503223524 | 17 | 340 | 6.4 | 11.3 | 0.00 | 0.00 | 0.00 | 22 | 1013.8 |
| 20260503222522 | 17 | 295 | 6.4 | 14.5 | 0.00 | 0.00 | 0.00 | 22 | 1013.8 |
| 20260503221519 | 17 | 319 | 8.0 | 19.3 | 0.00 | 0.00 | 0.00 | 22 | 1013.8 |
| 20260503220537 | 17 | 358 | 9.7 | 17.7 | 0.00 | 0.00 | 0.00 | 23 | 1013.8 |
| 20260503215531 | 17 | 347 | 9.7 | 17.7 | 0.00 | 0.00 | 0.00 | 22 | 1014.0 |
| 20260503214528 | 17 | 345 | 8.0 | 14.5 | 0.00 | 0.00 | 0.00 | 22 | 1014.0 |
| 20260503213526 | 17 | 4 | 11.3 | 19.3 | 0.00 | 0.00 | 0.00 | 22 | 1014.1 |
| 20260503212523 | 17 | 313 | 11.3 | 20.9 | 0.00 | 0.00 | 0.00 | 22 | 1014.0 |
| 20260503211521 | 17 | 316 | 11.3 | 25.7 | 0.00 | 0.00 | 0.00 | 23 | 1014.0 |
| 20260503210519 | 17 | 261 | 11.3 | 24.1 | 0.00 | 0.00 | 0.00 | 24 | 1013.9 |
| 20260503205516 | 17 | 322 | 9.7 | 19.3 | 0.00 | 0.00 | 0.00 | 22 | 1014.0 |
| 20260503204549 | 17 | 299 | 8.0 | 22.5 | 0.00 | 0.00 | 0.00 | 23 | 1014.1 |
| 20260503203527 | 17 | 323 | 6.4 | 20.9 | 0.00 | 0.00 | 0.00 | 23 | 1014.1 |
| 20260503202545 | 17 | 291 | 9.7 | 17.7 | 0.00 | 0.00 | 0.00 | 23 | 1014.2 |
| 20260503201523 | 16 | 328 | 8.0 | 14.5 | 0.00 | 0.00 | 0.00 | 24 | 1014.4 |
| 20260503200520 | 16 | 257 | 6.4 | 16.1 | 0.00 | 0.00 | 0.00 | 22 | 1014.4 |
| 20260503195518 | 16 | 7 | 6.4 | 12.9 | 0.00 | 0.00 | 0.00 | 23 | 1014.6 |
| 20260503194551 | 16 | 337 | 11.3 | 20.9 | 0.00 | 0.00 | 0.00 | 24 | 1014.8 |
| 20260503193529 | 16 | 323 | 12.9 | 20.9 | 0.00 | 0.00 | 0.00 | 24 | 1015.0 |
| 20260503192526 | 16 | 320 | 8.0 | 16.1 | 0.00 | 0.00 | 0.00 | 23 | 1015.1 |
| 20260503191545 | 16 | 322 | 11.3 | 17.7 | 0.00 | 0.00 | 0.00 | 23 | 1015.3 |
| 20260503190523 | 15 | 349 | 6.4 | 20.9 | 0.00 | 0.00 | 0.00 | 24 | 1015.5 |
| 20260503185519 | 15 | 300 | 12.9 | 22.5 | 0.00 | 0.00 | 0.00 | 25 | 1015.6 |
| 20260503184517 | 15 | 2 | 12.9 | 24.1 | 0.00 | 0.00 | 0.00 | 24 | 1015.7 |
| 20260503183531 | 15 | 2 | 12.9 | 22.5 | 0.00 | 0.00 | 0.00 | 25 | 1015.9 |
| 20260503182528 | 15 | 341 | 14.5 | 30.6 | 0.00 | 0.00 | 0.00 | 25 | 1015.8 |
| 20260503181526 | 15 | 312 | 9.7 | 17.7 | 0.00 | 0.00 | 0.00 | 27 | 1015.8 |
| 20260503180523 | 15 | 324 | 9.7 | 20.9 | 0.00 | 0.00 | 0.00 | 26 | 1015.9 |
| 20260503175521 | 14 | 319 | 9.7 | 20.9 | 0.00 | 0.00 | 0.00 | 27 | 1016.1 |
| 20260503174519 | 14 | 325 | 9.7 | 20.9 | 0.00 | 0.00 | 0.00 | 28 | 1016.0 |
| 20260503173517 | 13 | 318 | 9.7 | 14.5 | 0.00 | 0.00 | 0.00 | 30 | 1016.1 |
| 20260503172529 | 13 | 342 | 9.7 | 19.3 | 0.00 | 0.00 | 0.00 | 30 | 1016.3 |
| 20260503171547 | 13 | 354 | 11.3 | 19.3 | 0.00 | 0.00 | 0.00 | 29 | 1016.5 |
| 20260503170525 | 13 | 292 | 9.7 | 19.3 | 0.00 | 0.00 | 0.00 | 30 | 1016.5 |
| 20260503150527 | 12 | 298 | 12.9 | 29.0 | 0.00 | 0.00 | 0.00 | 33 | 1017.6 |
| 20260503130530 | 8 | 351 | 8.0 | 17.7 | 0.00 | 0.00 | 0.00 | 45 | 1017.9 |
| 20260503110517 | 3 | 31 | 1.6 | 3.2 | 0.00 | 0.00 | 0.00 | 72 | 1016.9 |